Location: Ladrillo (historical)
(32.8195°N, 117.2231°W)
Time: 23:51:08
(UTC+00:00)

Daily predictions for brighter satellites

Satellite Brightness Start Highest point End
(mag) Time Altitude Azimuth Time Altitude Azimuth Time Altitude Azimuth
SL-08 R/B 4.5 12:00:58 10° N 12:07:09 76° W 12:13:24 10° S
YAOGAN 6 3.1 12:08:19 10° NNE 12:11:54 63° E 12:15:29 10° S
Cosmos 2369 Rocket 3.5 12:11:35 10° WNW 12:15:19 19° W 12:19:03 10° SW
FALCON 9 R/B 4.3 12:08:36 10° W 12:17:01 19° WSW 12:21:19 10° SSW
ATLAS 2A CENTAUR R/B 3.3 12:03:28 10° W 12:17:18 56° S 12:22:26 10° ESE
CZ-4C R/B 3.1 12:14:11 10° S 12:17:44 80° W 12:21:28 10° NNW
Cosmos 1110 Rocket 4.3 12:13:01 10° S 12:18:08 72° ESE 12:23:18 10° NNE
Nadezhda 3 Rocket 4.2 12:12:04 10° SSW 12:18:13 54° W 12:24:22 10° N
MINOTAUR 4 R/B 3.9 12:15:16 10° S 12:18:44 79° WSW 12:22:15 10° NNW
Cosmos 1190 Rocket 4.5 12:14:12 10° NNW 12:19:07 40° W 12:24:02 10° S
Cosmos 1869 3.4 12:16:38 10° NNW 12:20:26 52° W 12:24:10 10° S
CZ-4B R/B 3.7 12:15:59 10° NNE 12:21:13 82° ESE 12:26:29 10° SSW
CZ-3 R/B 3.6 12:00:08 10° W 12:35:52 72° SSW 12:44:12 10° ESE
